Regional Weather Roundup
Issued by NWS

Home | Current Version | Previous Version | Text Only | Print | Product List | Glossary On
Versions: 1 2 3 4 5 6 7 8 9 10 11 12 13 14 15 16 17 18 19 20 21 22 23 24 25 26 27 28 29 30 31 32 33 34 35 36 37 38 39 40 41 42 43 44 45 46 47 48 49 50
000
ASUS44 KOUN 050110
RWROK

WEATHER ROUNDUP FOR OKLAHOMA
NATIONAL WEATHER SERVICE NORMAN OK
800 PM CDT FRI SEP 04 2015

NOTE: "FAIR" INDICATES FEW OR NO CLOUDS BELOW 12,000 FEET WITH NO
      SIGNIFICANT WEATHER AND/OR OBSTRUCTIONS TO VISIBILITY.

OKZ001>007-009>012-014-015-017-050200-
NORTHWEST OKLAHOMA AND THE PANHANDLE

CITY           SKY/WX    TMP DP  RH WIND       PRES   REMARKS
GAGE           CLEAR     88  59  37 S14       29.91R
GUYMON         PTCLDY    88  54  31 S14       29.89R
ENID/WOODRING  MOCLDY    88  64  45 SE8       29.89R
$$

OKZ016-021>023-033>039-044-045-050200-
SOUTHWEST OKLAHOMA

CITY           SKY/WX    TMP DP  RH WIND       PRES   REMARKS
LAWTON/REGL    PTCLDY    91  64  40 SE9       29.89R HX  92
LAWTON/FT SILL PTCLDY    89  67  47 SE14      29.89R HX  92
FREDERICK      CLEAR     91  64  40 SE12      29.86R HX  92
CLINTON        CLEAR     89  59  36 S12       29.93S
HOBART         CLEAR     91  61  36 SE13      29.91R HX  91
ALTUS AFB      CLEAR     87  64  46 SE9       29.88S
$$

OKZ018>020-024>031-050200-
CENTRAL OKLAHOMA

CITY           SKY/WX    TMP DP  RH WIND       PRES   REMARKS
OKLAHOMA CITY  MOCLDY    86  66  51 S7        29.92R
OKC/WILEY POST CLEAR     89  65  44 S10       29.92R HX  91
OKC/TINKER AFB CLEAR     85  69  58 SE5       29.92R
STILLWATER     CLEAR     87  68  52 SE8       29.91R HX  90
GUTHRIE        CLEAR     87  65  47 SE5       29.91R
$$

OKZ008-013-054>072-050200-
NORTHEAST OKLAHOMA

CITY           SKY/WX    TMP DP  RH WIND       PRES   REMARKS
TULSA          PTCLDY    83  72  69 E6        29.91R
TULSA/JONES    CLEAR     88  69  53 SE5       29.92R HX  92
PONCA CITY     CLEAR     86  70  58 SE10      29.90S HX  90
BARTLESVILLE   CLEAR     84  71  65 S3        29.93R
MUSKOGEE       CLEAR     83  73  72 SE5       29.94R
$$

OKZ032-040>043-046>053-073>077-050200-
SOUTH CENTRAL/SOUTHEAST OKLAHOMA

CITY           SKY/WX    TMP DP  RH WIND       PRES   REMARKS
ARDMORE/DWNTWN CLEAR     86  64  48 SE3       29.91R
MCALESTER      CLOUDY    84  70  62 E8        29.94R
$$



USA.gov is the U.S. government's official web portal to all federal, state and local government web resources and services.